SCP
0 0 0 0 0 0 -0 -0 -0 -0 -0 0 0 0 0 0 0 0 0 0 0 0 0 0 0 0 0 0 0 0 0 -0 -0 -0 -0 0 -0 -0 -0 -0 -0 -0 -0 -0 -0 -0 -0 -0 0
0 0 0 0 0 0 -0 0 -0 0 0 0 0 0 0 0 0 0 0 0 -0 0 0 0 0 -0 -0 -0 0 0 -0 -0 -0 -0 -0 -0 -0 -0 -0 -0 -0 -0 -0 -0 -0 -0 -0 -0 -0
0 0 0 0 0 0 0 -0 0 -0 -0 0 0 0 0 0 0 -0 0 -0 -0 0 -0 0 -0 -0 -0 -0 -0 -0 -0 -0 -0 -0 -0 -0 -0 -0 -0 -0 -0 -0 -0 -0 -0 -0 -0 -0 -0
0 0 0 0 0 0 -0 -0 -0 -0 -0 -0 0 -0 0 0 0 0 -0 -0 -0 -0 0 0 -0 -0 -0 -0 -0 -0 -0 -0 -0 -0 -0 -0 -0 -0 -0 -0 -0 -0 -0 -0 -0 -0 -0 -0 -0
0 0 0 0 0 0 0 0 0 -0 0 -0 -0 0 0 -0 0 -0 -0 -0 -0 0 0 -0 -0 -0 -0 -0 -0 -0 -0 -0 -0 -0 -0 -0 -0 -0 -0 -0 -0 -0 -0 -0 -0 -0 -0 -0 -0
0 0 0 0 0 0 0 0 0 0 0 0 0 -0 0 0 -0 -0 -0 -0 -0 -0 -0 -0 -0 -0 -0 -0 -0 -0 -0 -0 -0 -0 -0 -0 -0 -0 -0 -0 -0 -0 -0 -0 -0 -0 -0 -0 0
0 0 0 0 0 0 0 0 0 0 0 0 0 0 0 0 0 -0 -0 -0 -0 -0 -0 -0 -0 -0 -0 -0 -0 -0 -0 -0 -0 -0 -0 -0 -0 -0 -0 -0 -0 -0 -0 -0 -0 -0 -0 0 0
0 0 0 0 0 0 0 0 0 0 0 0 0 0 0 0 -0 0 -0 0 0 0 -0 -0 -0 -0 -0 0 0 0 -0 0 -0 -0 -0 -0 -0 -0 -0 0 -0 -0 -0 -0 -0 -0 0 0 0
0 0 0 0 0 0 0 0 0 0 0 0 0 0 0 0 0 0 0 0 0 0 0 0 0 0 0 0 0 0 0 0 0 -0 0 0 0 0 0 0 0 0 0 -0 -0 0 0 0 0
0 0 0 0 0 0 0 0 0 0 0 0 0 0 0 0 0 0 0 0 -0 0 0 0 0 0 0 0 0 0 0 0 0 0 0 0 0 0 0 0 0 0 0 0 0 0 0 0 0
0 0 0 0 0 0 0 0 0 0 0 0 0 0 0 0 0 0 0 0 0 0 0 0 0 0 0 0 0 0 0 0 0 0 0 0 0 0 0 0 0 0 0 0 0 0 0 0 0
0 0 0 0 0 0 0 0 0 0 0 0 0 0 0 0 0 0 0 0 0 0 0 0 0 0 0 0 0 0 0 0 0 0 0 0 0 0 0 0 0 0 0 0 0 0 0 0 0
0 0 0 0 0 0 0 0 0 0 0 0 0 0 0 0 0 0 0 0 0 0 0 0 0 0 0 0 0 0 0 0 0 0 0 0 0 0 0 0 0 0 0 0 0 0 0 0 0
0 0 0 0 0 0 0 0 0 0 0 0 0 0 0 0 0 0 0 0 0 0 0 0 0 0 0 0 0 0 0 0 0 0 0 0 0 0 0 0 0 0 0 0 0 0 0 0 0
0 0 0 0 0 0 0 0 0 0 0 0 0 0 0 0 0 0 0 0 0 0 0 0 0 0 0 0 0 0 0 0 0 0 0 0 0 0 0 0 0 0 0 0 0 0 0 0 0
0 0 0 0 0 0 0 0 0 0 0 0 0 0 0 0 0 0 0 0 0 0 0 0 0 0 0 0 0 0 0 0 0 0 0 0 0 0 0 0 0 0 0 0 0 0 0 0 0
0 0 0 0 0 0 0 0 0 0 0 0 0 0 0 0 0 0 0 0 0 0 0 0 0 0 0 0 0 0 0 0 0 0 0 0 0 0 0 0 0 0 0 0 0 0 0 0 0
0 0 0 0 0 0 0 0 0 0 0 0 0 0 0 0 0 0 0 0 0 0 0 0 0 0 0 0 0 0 0 0 0 0 0 0 0 0 0 0 0 0 0 0 0 0 0 0 0
0 0 0 0 0 0 0 0 0 0 0 0 0 0 0 0 0 0 0 0 0 0 0 0 0 0 0 0 0 0 0 0 0 0 0 0 0 0 0 0 0 0 0 0 0 0 0 0 0
0 0 0 0 0 0 -0 -0 -0 0 0 0 0 0 0 0 0 0 0 0 0 0 0 0 0 0 0 0 0 0 0 0 0 0 0 0 0 0 0 0 0 0 0 0 0 0 0 0 0
0 0 0 0 0 0 0 -0 -0 -0 0 0 0 0 0 0 0 0 0 0 0 0 0 0 0 0 0 0 0 0 0 0 0 0 0 0 0 0 0 0 0 0 0 0 0 0 0 0 0
0 0 0 0 0 0 0 -0 -0 -0 0 0 0 0 0 0 0 0 0 0 0 0 0 0 0 0 0 0 0 0 0 0 0 0 0 0 0 0 0 0 0 0 0 0 0 0 0 0 0
0 0 0 0 0 0 0 0 -0 0 0 0 0 0 0 0 0 0 0 0 0 0 0 0 0 0 0 0 0 0 0 0 0 0 0 0 0 0 0 0 0 0 0 0 0 0 0 0 0
0 0 0 0 0 0 0 0 -0 0 0 0 0 0 0 0 0 0 0 0 0 0 0 0 0 0 0 0 0 0 0 0 0 0 0 0 0 0 0 0 0 0 0 0 0 0 0 0 0
0 0 0 0 0 0 0 0 0 0 0 0 0 0 0 0 0 0 0 0 0 0 0 0 0 0 0 0 0 0 0 0 0 0 0 0 0 0 0 0 0 0 0 0 0 0 0 0 0
0 0 0 0 0 0 0 0 0 0 0 0 0 0 0 0 0 0 0 0 0 0 0 0 0 0 0 0 0 0 0 0 0 0 0 0 0 0 0 0 0 0 0 0 0 0 0 0 0
0 0 0 0 0 0 0 0 0 0 0 0 0 0 0 0 0 0 0 0 0 0 0 0 0 0 0 0 0 0 0 0 0 0 0 0 0 0 0 0 0 0 0 0 0 0 0 0 0
0 0 0 0 0 0 0 0 0 0 0 0 0 0 0 0 0 0 0 0 0 0 0 0 0 0 0 0 0 0 0 0 0 0 0 0 0 0 0 0 0 0 0 0 0 0 0 0 0
0 0 0 0 0 0 0 0 0 0 0 0 0 0 0 0 0 0 0 0 0 0 0 0 0 0 0 0 0 0 0 0 0 0 0 0 0 0 0 0 0 0 0 0 0 0 0 0 0
0 0 0 0 0 0 0 0 0 0 0 0 0 0 0 0 0 -0 -0 -0 0 0 0 0 0 0 0 0 0 0 0 0 0 0 0 0 0 0 0 0 0 0 0 0 0 0 0 0 0
Wind_Speed_500mb
23 25 27 10 7 8 1 4 2 5 4 5 19 9 10 6 8 3 21 34 32 31 35 31 31 26 22 24 24 22 13 11 13 11 15 26 26 27 28 33 35 35 37 37 35 42 34 39 38
22 21 13 6 8 5 6 3 6 7 6 20 13 10 4 3 6 9 36 35 34 33 37 31 32 28 23 24 23 20 15 12 11 12 21 25 25 26 27 32 31 35 34 33 34 36 34 36 38
19 19 5 8 5 3 4 5 4 7 23 8 6 4 3 3 8 18 24 35 37 36 36 34 31 28 23 23 23 21 17 12 12 14 21 25 24 25 24 30 30 36 32 30 31 32 32 33 35
17 6 10 7 2 5 6 3 7 20 6 3 3 2 4 9 7 23 30 33 35 37 37 36 34 28 26 24 20 17 15 13 11 15 17 22 21 22 22 24 30 30 31 28 29 30 31 32 34
10 5 7 6 4 6 5 5 24 10 1 2 7 5 3 10 10 33 33 33 32 36 37 37 36 32 31 26 20 15 14 19 14 13 14 18 17 18 19 22 25 26 28 25 28 28 30 32 32
3 5 6 4 5 7 7 14 20 7 3 7 6 4 4 9 19 29 31 30 31 30 35 37 37 34 30 25 19 15 13 22 20 14 13 16 14 15 17 19 20 20 21 21 25 27 29 29 28
7 7 7 5 4 6 2 21 14 17 11 9 6 6 4 20 27 27 30 28 30 30 31 34 35 34 30 25 21 17 13 16 19 18 17 15 15 16 17 19 19 18 19 19 21 22 23 24 23
5 8 8 7 8 6 7 17 6 18 12 10 14 7 4 25 32 33 34 32 33 33 33 33 34 33 30 28 24 19 16 19 20 17 19 16 16 16 17 18 18 17 18 19 19 19 19 19 20
6 6 6 8 13 8 11 5 5 7 11 18 19 13 7 17 36 40 41 40 41 40 37 36 34 33 31 29 26 22 21 22 21 18 21 18 17 17 17 18 18 18 17 17 17 17 15 14 15
8 6 14 10 9 8 12 8 5 7 7 14 22 27 20 13 40 46 50 50 49 47 44 40 37 35 33 31 28 25 25 24 23 22 24 21 20 18 17 17 17 17 16 16 15 14 12 10 9
9 10 6 2 2 1 9 4 10 14 5 21 24 33 30 25 39 48 50 52 49 47 47 45 40 37 35 32 30 29 28 27 27 26 26 23 23 21 19 19 17 18 17 15 13 11 9 8 7
7 14 9 1 3 3 3 1 6 14 12 17 14 20 29 37 41 44 51 53 54 52 49 47 44 41 38 35 33 31 30 29 30 28 28 26 24 24 23 21 20 20 18 15 13 11 9 8 8
8 7 8 9 10 12 14 14 10 33 30 26 30 30 31 39 42 45 52 51 51 55 52 50 48 47 43 41 38 37 34 32 30 31 29 28 28 27 26 24 23 22 20 17 16 15 12 11 10
5 10 12 11 19 12 12 19 5 44 28 37 36 34 33 38 39 51 54 53 55 52 55 52 52 51 48 46 44 41 38 35 35 33 31 30 30 30 29 29 27 24 22 20 19 18 16 15 13
3 6 12 12 14 14 11 16 18 70 56 60 54 48 40 42 49 50 44 54 54 52 51 57 56 55 55 51 49 48 45 42 40 38 36 35 35 33 31 31 30 27 25 24 24 22 19 18 17
7 3 6 4 17 15 23 26 20 37 35 50 60 58 56 53 50 49 55 58 56 55 55 55 63 61 60 60 57 55 52 49 47 45 43 41 40 38 37 34 32 30 29 28 27 25 24 22 21
1 6 12 12 10 4 14 1 7 22 37 44 50 56 59 66 62 60 58 56 58 57 59 61 62 68 65 64 64 62 59 57 56 54 53 49 47 45 42 39 35 34 33 31 30 29 27 26 25
11 13 4 7 7 6 13 22 19 29 24 38 44 49 57 60 65 65 67 63 63 65 67 68 68 68 70 68 66 68 68 68 66 62 60 56 54 52 49 44 41 40 39 37 35 33 31 29 27
13 8 3 6 9 12 14 28 20 45 54 50 66 70 73 72 65 64 73 72 73 73 74 75 75 75 76 80 79 77 80 78 76 72 67 64 62 58 56 52 49 48 45 41 37 37 35 33 31
13 15 16 6 6 5 21 52 36 30 49 62 64 68 77 79 79 79 82 77 82 81 79 79 81 85 84 83 85 83 81 81 77 76 73 70 69 66 62 59 56 54 51 48 46 44 42 39 36
16 19 14 25 14 10 18 47 38 20 55 65 66 76 81 87 92 88 82 92 89 88 89 91 88 89 90 90 90 91 88 84 83 87 85 80 75 73 69 65 61 59 57 54 51 50 49 46 42
22 5 12 20 13 11 8 21 30 8 23 21 56 74 81 85 90 94 95 95 101 106 100 93 92 96 92 96 100 102 102 98 94 90 88 84 80 78 77 72 68 64 62 60 57 54 54 51 49
20 11 13 10 9 14 21 16 9 7 15 18 32 59 64 71 78 85 87 92 98 104 109 108 103 98 96 99 103 108 107 105 100 93 90 89 84 84 80 79 76 72 68 65 63 58 60 57 55
10 8 5 7 7 15 22 21 28 19 28 10 18 47 52 64 75 80 79 78 85 92 100 112 117 114 103 104 104 112 111 106 108 106 99 94 87 84 84 85 81 76 76 73 67 61 60 58 58
10 14 2 8 10 16 20 20 54 16 17 21 22 45 65 67 66 80 81 76 81 91 90 102 111 124 120 118 114 114 111 109 108 110 105 99 92 85 87 84 85 85 83 77 71 67 63 61 60
37 26 11 18 13 6 9 21 24 1 25 47 64 72 69 67 74 87 93 89 95 100 101 98 103 115 124 128 124 116 111 113 111 109 105 104 93 85 82 78 76 82 81 77 75 72 69 65 66
12 27 29 4 1 2 10 19 33 42 44 46 55 53 74 81 89 96 100 100 94 93 109 105 101 101 114 129 127 119 120 114 113 109 104 101 90 87 82 78 73 72 73 73 74 72 73 70 68
13 9 10 14 10 13 16 24 29 30 41 37 24 51 66 75 82 83 86 89 87 88 94 102 105 110 114 119 131 129 123 112 108 107 105 96 88 86 84 80 72 68 67 68 66 67 68 68 69
10 15 7 6 10 8 7 14 16 38 39 38 23 39 48 66 86 86 81 80 88 95 95 96 100 105 110 116 117 127 129 117 110 108 102 90 88 83 81 76 69 68 66 66 66 66 63 60 52
15 30 38 12 11 8 20 36 41 47 54 67 73 74 71 79 98 102 104 113 111 107 104 98 99 104 104 109 113 118 125 116 112 105 97 90 90 82 74 69 65 65 65 66 64 59 55 58 57
Wind_Direction_500mb
340 338 340 352 44 57 79 227 92 138 146 182 153 165 191 152 166 191 158 157 160 161 154 155 149 149 143 136 130 128 127 123 113 109 101 100 101 94 104 105 98 93 94 96 97 96 93 91 91
345 347 345 61 75 33 292 287 205 192 153 132 128 124 145 199 175 150 155 160 161 159 159 158 156 157 153 148 141 140 143 127 105 103 103 107 106 106 107 108 102 97 99 100 92 102 101 95 88
349 340 0 83 107 145 264 245 206 131 132 133 132 183 209 245 191 168 164 165 163 161 167 161 165 161 159 157 153 150 153 138 113 106 118 117 110 105 105 111 106 103 102 104 99 98 96 96 90
355 329 60 81 179 226 195 300 159 144 192 200 203 192 231 197 169 179 168 169 165 164 170 168 171 167 166 167 158 157 155 147 140 122 114 121 115 112 113 119 114 111 112 102 100 98 96 99 93
352 26 57 93 258 262 240 238 160 152 119 154 182 281 249 218 213 175 171 169 172 165 170 173 174 173 174 180 175 174 167 155 156 142 120 123 116 116 118 122 121 117 115 115 101 99 96 100 98
50 67 64 229 235 275 281 172 150 145 161 161 200 197 257 201 169 173 175 173 172 172 171 176 178 179 183 185 188 194 183 173 174 170 148 137 130 117 115 117 123 124 119 116 109 104 102 101 100
121 91 206 187 222 299 267 159 164 176 174 219 174 164 262 187 171 178 177 182 179 178 183 183 187 189 194 198 200 207 189 187 181 174 159 144 139 127 126 128 132 135 132 125 117 111 110 105 106
139 95 157 223 176 245 169 176 205 192 211 183 199 198 277 193 179 177 186 191 191 189 192 194 195 199 203 205 205 209 198 195 189 177 159 156 149 145 141 141 143 148 146 137 130 120 114 111 112
154 84 211 223 154 221 164 187 194 202 180 189 203 221 200 194 194 188 195 198 199 200 199 202 203 205 205 205 208 211 205 202 202 186 174 169 166 160 156 157 159 156 159 151 142 133 128 120 115
151 166 214 220 187 179 151 169 181 166 179 220 221 227 236 214 207 208 206 206 205 205 206 207 208 211 208 207 209 208 206 205 198 191 185 180 179 173 172 168 166 168 171 167 157 151 144 135 129
166 208 213 308 313 144 139 179 178 151 212 233 236 237 233 222 214 219 223 222 220 213 211 212 212 214 216 216 212 211 209 205 199 196 194 193 188 185 183 178 176 180 178 177 174 174 170 163 161
169 253 219 321 48 51 39 322 266 221 245 270 261 254 239 234 225 229 231 228 225 221 221 217 215 218 220 220 220 219 215 208 205 203 201 200 195 192 192 189 188 191 190 191 197 208 211 201 200
171 245 201 195 247 305 304 269 261 271 264 264 271 264 242 238 242 239 233 236 234 232 227 224 221 222 222 223 223 224 221 216 211 211 209 209 204 201 200 201 200 200 202 207 214 222 223 226 222
170 257 265 270 260 257 268 271 207 263 271 262 258 256 251 239 244 235 235 239 237 236 230 228 230 227 227 225 224 227 227 222 219 217 216 216 212 211 209 209 211 209 210 217 222 227 229 233 235
103 326 330 227 211 223 214 272 212 264 264 261 261 261 253 249 239 242 256 247 245 245 237 231 232 233 233 231 229 228 229 227 227 225 221 219 216 216 216 218 218 218 220 225 231 234 238 243 246
122 145 285 303 171 218 174 254 233 260 259 258 259 256 259 254 254 251 249 248 248 245 242 237 233 232 233 235 234 232 231 231 231 229 227 224 222 223 224 224 221 220 225 230 235 240 243 247 252
178 233 212 299 231 351 203 149 266 250 251 251 251 256 257 257 251 254 253 253 252 250 244 240 237 236 235 235 236 237 236 235 234 232 230 228 227 228 230 229 226 224 229 233 237 242 246 249 255
188 222 246 214 346 343 275 259 280 258 262 263 267 260 260 256 257 258 257 258 255 251 247 244 241 239 237 237 237 238 239 237 236 235 235 233 232 231 233 232 231 229 232 235 239 243 248 251 254
114 125 124 298 308 333 269 275 257 259 273 271 270 270 267 264 263 263 260 256 253 250 248 246 242 239 235 234 233 234 237 237 238 236 236 235 235 233 235 235 234 235 237 241 243 246 248 251 253
232 244 238 240 283 335 301 288 277 250 257 254 256 261 265 269 268 260 257 256 250 248 248 247 247 242 239 237 239 237 238 239 241 242 240 237 236 236 236 238 237 238 239 240 241 244 247 249 249
225 231 249 258 284 275 301 287 279 245 234 246 250 256 261 261 262 260 254 249 250 248 247 247 247 248 245 241 238 237 239 240 240 240 239 236 237 238 238 239 240 240 241 242 246 247 248 250 249
232 182 231 258 262 257 129 288 289 233 242 225 243 246 251 257 260 260 259 254 248 248 249 251 250 247 246 243 239 238 237 237 239 239 240 239 237 238 239 239 241 242 242 243 246 247 249 248 246
230 149 179 191 233 275 252 279 262 255 271 247 244 257 263 268 269 268 268 267 264 256 252 253 251 247 243 243 242 240 239 241 243 243 242 241 238 239 240 240 241 243 245 245 246 246 246 247 247
181 89 124 155 185 250 200 200 259 223 249 266 226 254 268 275 275 274 275 274 271 267 259 254 250 246 242 241 242 241 240 240 240 240 241 242 240 239 239 240 242 244 246 246 247 249 248 249 249
180 130 263 207 208 239 178 185 256 290 278 284 262 267 278 278 278 282 276 275 272 271 265 260 255 248 243 242 241 240 241 239 241 243 241 242 242 239 238 238 241 243 245 246 247 247 248 246 247
201 195 178 193 205 208 218 220 254 83 274 265 264 270 279 279 280 282 282 277 276 279 272 263 261 255 246 243 240 241 239 238 239 241 243 243 243 244 243 239 239 241 243 245 246 247 248 247 247
172 208 213 22 204 51 213 272 287 270 272 269 268 273 277 280 285 285 286 285 284 284 275 268 262 258 252 247 243 240 239 237 237 240 241 243 243 244 244 240 237 239 241 242 243 245 248 248 250
154 160 163 199 225 225 235 253 251 291 287 272 276 278 281 285 289 295 296 295 298 293 290 273 265 262 259 250 245 240 237 239 238 238 239 240 240 240 240 239 236 237 237 239 239 243 245 247 250
190 236 218 189 180 214 247 251 218 255 265 278 288 281 286 298 300 302 301 303 301 297 292 280 270 259 253 249 246 242 238 237 236 234 238 239 239 240 239 239 236 234 237 237 238 240 243 244 248
205 216 218 221 237 249 254 263 267 274 281 284 288 293 290 287 288 297 304 307 306 303 296 283 272 258 250 249 246 242 238 235 232 231 234 236 236 238 240 240 237 234 234 235 235 237 239 241 248
Wind_Speed_850mb
23 25 27 10 7 8 1 4 2 5 4 5 19 9 10 6 8 3 21 34 32 31 35 31 31 26 22 24 24 22 13 11 13 11 15 26 26 27 28 33 35 35 37 37 35 42 34 39 38
22 21 13 6 8 5 6 3 6 7 6 20 13 10 4 3 6 9 36 35 34 33 37 31 32 28 23 24 23 20 15 12 11 12 21 25 25 26 27 32 31 35 34 33 34 36 34 36 38
19 19 5 8 5 3 4 5 4 7 23 8 6 4 3 3 8 18 24 35 37 36 36 34 31 28 23 23 23 21 17 12 12 14 21 25 24 25 24 30 30 36 32 30 31 32 32 33 35
17 6 10 7 2 5 6 3 7 20 6 3 3 2 4 9 7 23 30 33 35 37 37 36 34 28 26 24 20 17 15 13 11 15 17 22 21 22 22 24 30 30 31 28 29 30 31 32 34
10 5 7 6 4 6 5 5 24 10 1 2 7 5 3 10 10 33 33 33 32 36 37 37 36 32 31 26 20 15 14 19 14 13 14 18 17 18 19 22 25 26 28 25 28 28 30 32 32
3 5 6 4 5 7 7 14 20 7 3 7 6 4 4 9 19 29 31 30 31 30 35 37 37 34 30 25 19 15 13 22 20 14 13 16 14 15 17 19 20 20 21 21 25 27 29 29 28
7 7 7 5 4 6 2 21 14 17 11 9 6 6 4 20 27 27 30 28 30 30 31 34 35 34 30 25 21 17 13 16 19 18 17 15 15 16 17 19 19 18 19 19 21 22 23 24 23
5 8 8 7 8 6 7 17 6 18 12 10 14 7 4 25 32 33 34 32 33 33 33 33 34 33 30 28 24 19 16 19 20 17 19 16 16 16 17 18 18 17 18 19 19 19 19 19 20
6 6 6 8 13 8 11 5 5 7 11 18 19 13 7 17 36 40 41 40 41 40 37 36 34 33 31 29 26 22 21 22 21 18 21 18 17 17 17 18 18 18 17 17 17 17 15 14 15
8 6 14 10 9 8 12 8 5 7 7 14 22 27 20 13 40 46 50 50 49 47 44 40 37 35 33 31 28 25 25 24 23 22 24 21 20 18 17 17 17 17 16 16 15 14 12 10 9
9 10 6 2 2 1 9 4 10 14 5 21 24 33 30 25 39 48 50 52 49 47 47 45 40 37 35 32 30 29 28 27 27 26 26 23 23 21 19 19 17 18 17 15 13 11 9 8 7
7 14 9 1 3 3 3 1 6 14 12 17 14 20 29 37 41 44 51 53 54 52 49 47 44 41 38 35 33 31 30 29 30 28 28 26 24 24 23 21 20 20 18 15 13 11 9 8 8
8 7 8 9 10 12 14 14 10 33 30 26 30 30 31 39 42 45 52 51 51 55 52 50 48 47 43 41 38 37 34 32 30 31 29 28 28 27 26 24 23 22 20 17 16 15 12 11 10
5 10 12 11 19 12 12 19 5 44 28 37 36 34 33 38 39 51 54 53 55 52 55 52 52 51 48 46 44 41 38 35 35 33 31 30 30 30 29 29 27 24 22 20 19 18 16 15 13
3 6 12 12 14 14 11 16 18 70 56 60 54 48 40 42 49 50 44 54 54 52 51 57 56 55 55 51 49 48 45 42 40 38 36 35 35 33 31 31 30 27 25 24 24 22 19 18 17
7 3 6 4 17 15 23 26 20 37 35 50 60 58 56 53 50 49 55 58 56 55 55 55 63 61 60 60 57 55 52 49 47 45 43 41 40 38 37 34 32 30 29 28 27 25 24 22 21
1 6 12 12 10 4 14 1 7 22 37 44 50 56 59 66 62 60 58 56 58 57 59 61 62 68 65 64 64 62 59 57 56 54 53 49 47 45 42 39 35 34 33 31 30 29 27 26 25
11 13 4 7 7 6 13 22 19 29 24 38 44 49 57 60 65 65 67 63 63 65 67 68 68 68 70 68 66 68 68 68 66 62 60 56 54 52 49 44 41 40 39 37 35 33 31 29 27
13 8 3 6 9 12 14 28 20 45 54 50 66 70 73 72 65 64 73 72 73 73 74 75 75 75 76 80 79 77 80 78 76 72 67 64 62 58 56 52 49 48 45 41 37 37 35 33 31
13 15 16 6 6 5 21 52 36 30 49 62 64 68 77 79 79 79 82 77 82 81 79 79 81 85 84 83 85 83 81 81 77 76 73 70 69 66 62 59 56 54 51 48 46 44 42 39 36
16 19 14 25 14 10 18 47 38 20 55 65 66 76 81 87 92 88 82 92 89 88 89 91 88 89 90 90 90 91 88 84 83 87 85 80 75 73 69 65 61 59 57 54 51 50 49 46 42
22 5 12 20 13 11 8 21 30 8 23 21 56 74 81 85 90 94 95 95 101 106 100 93 92 96 92 96 100 102 102 98 94 90 88 84 80 78 77 72 68 64 62 60 57 54 54 51 49
20 11 13 10 9 14 21 16 9 7 15 18 32 59 64 71 78 85 87 92 98 104 109 108 103 98 96 99 103 108 107 105 100 93 90 89 84 84 80 79 76 72 68 65 63 58 60 57 55
10 8 5 7 7 15 22 21 28 19 28 10 18 47 52 64 75 80 79 78 85 92 100 112 117 114 103 104 104 112 111 106 108 106 99 94 87 84 84 85 81 76 76 73 67 61 60 58 58
10 14 2 8 10 16 20 20 54 16 17 21 22 45 65 67 66 80 81 76 81 91 90 102 111 124 120 118 114 114 111 109 108 110 105 99 92 85 87 84 85 85 83 77 71 67 63 61 60
37 26 11 18 13 6 9 21 24 1 25 47 64 72 69 67 74 87 93 89 95 100 101 98 103 115 124 128 124 116 111 113 111 109 105 104 93 85 82 78 76 82 81 77 75 72 69 65 66
12 27 29 4 1 2 10 19 33 42 44 46 55 53 74 81 89 96 100 100 94 93 109 105 101 101 114 129 127 119 120 114 113 109 104 101 90 87 82 78 73 72 73 73 74 72 73 70 68
13 9 10 14 10 13 16 24 29 30 41 37 24 51 66 75 82 83 86 89 87 88 94 102 105 110 114 119 131 129 123 112 108 107 105 96 88 86 84 80 72 68 67 68 66 67 68 68 69
10 15 7 6 10 8 7 14 16 38 39 38 23 39 48 66 86 86 81 80 88 95 95 96 100 105 110 116 117 127 129 117 110 108 102 90 88 83 81 76 69 68 66 66 66 66 63 60 52
15 30 38 12 11 8 20 36 41 47 54 67 73 74 71 79 98 102 104 113 111 107 104 98 99 104 104 109 113 118 125 116 112 105 97 90 90 82 74 69 65 65 65 66 64 59 55 58 57
Wind_Direction_850mb
340 338 340 352 44 57 79 227 92 138 146 182 153 165 191 152 166 191 158 157 160 161 154 155 149 149 143 136 130 128 127 123 113 109 101 100 101 94 104 105 98 93 94 96 97 96 93 91 91
345 347 345 61 75 33 292 287 205 192 153 132 128 124 145 199 175 150 155 160 161 159 159 158 156 157 153 148 141 140 143 127 105 103 103 107 106 106 107 108 102 97 99 100 92 102 101 95 88
349 340 0 83 107 145 264 245 206 131 132 133 132 183 209 245 191 168 164 165 163 161 167 161 165 161 159 157 153 150 153 138 113 106 118 117 110 105 105 111 106 103 102 104 99 98 96 96 90
355 329 60 81 179 226 195 300 159 144 192 200 203 192 231 197 169 179 168 169 165 164 170 168 171 167 166 167 158 157 155 147 140 122 114 121 115 112 113 119 114 111 112 102 100 98 96 99 93
352 26 57 93 258 262 240 238 160 152 119 154 182 281 249 218 213 175 171 169 172 165 170 173 174 173 174 180 175 174 167 155 156 142 120 123 116 116 118 122 121 117 115 115 101 99 96 100 98
50 67 64 229 235 275 281 172 150 145 161 161 200 197 257 201 169 173 175 173 172 172 171 176 178 179 183 185 188 194 183 173 174 170 148 137 130 117 115 117 123 124 119 116 109 104 102 101 100
121 91 206 187 222 299 267 159 164 176 174 219 174 164 262 187 171 178 177 182 179 178 183 183 187 189 194 198 200 207 189 187 181 174 159 144 139 127 126 128 132 135 132 125 117 111 110 105 106
139 95 157 223 176 245 169 176 205 192 211 183 199 198 277 193 179 177 186 191 191 189 192 194 195 199 203 205 205 209 198 195 189 177 159 156 149 145 141 141 143 148 146 137 130 120 114 111 112
154 84 211 223 154 221 164 187 194 202 180 189 203 221 200 194 194 188 195 198 199 200 199 202 203 205 205 205 208 211 205 202 202 186 174 169 166 160 156 157 159 156 159 151 142 133 128 120 115
151 166 214 220 187 179 151 169 181 166 179 220 221 227 236 214 207 208 206 206 205 205 206 207 208 211 208 207 209 208 206 205 198 191 185 180 179 173 172 168 166 168 171 167 157 151 144 135 129
166 208 213 308 313 144 139 179 178 151 212 233 236 237 233 222 214 219 223 222 220 213 211 212 212 214 216 216 212 211 209 205 199 196 194 193 188 185 183 178 176 180 178 177 174 174 170 163 161
169 253 219 321 48 51 39 322 266 221 245 270 261 254 239 234 225 229 231 228 225 221 221 217 215 218 220 220 220 219 215 208 205 203 201 200 195 192 192 189 188 191 190 191 197 208 211 201 200
171 245 201 195 247 305 304 269 261 271 264 264 271 264 242 238 242 239 233 236 234 232 227 224 221 222 222 223 223 224 221 216 211 211 209 209 204 201 200 201 200 200 202 207 214 222 223 226 222
170 257 265 270 260 257 268 271 207 263 271 262 258 256 251 239 244 235 235 239 237 236 230 228 230 227 227 225 224 227 227 222 219 217 216 216 212 211 209 209 211 209 210 217 222 227 229 233 235
103 326 330 227 211 223 214 272 212 264 264 261 261 261 253 249 239 242 256 247 245 245 237 231 232 233 233 231 229 228 229 227 227 225 221 219 216 216 216 218 218 218 220 225 231 234 238 243 246
122 145 285 303 171 218 174 254 233 260 259 258 259 256 259 254 254 251 249 248 248 245 242 237 233 232 233 235 234 232 231 231 231 229 227 224 222 223 224 224 221 220 225 230 235 240 243 247 252
178 233 212 299 231 351 203 149 266 250 251 251 251 256 257 257 251 254 253 253 252 250 244 240 237 236 235 235 236 237 236 235 234 232 230 228 227 228 230 229 226 224 229 233 237 242 246 249 255
188 222 246 214 346 343 275 259 280 258 262 263 267 260 260 256 257 258 257 258 255 251 247 244 241 239 237 237 237 238 239 237 236 235 235 233 232 231 233 232 231 229 232 235 239 243 248 251 254
114 125 124 298 308 333 269 275 257 259 273 271 270 270 267 264 263 263 260 256 253 250 248 246 242 239 235 234 233 234 237 237 238 236 236 235 235 233 235 235 234 235 237 241 243 246 248 251 253
232 244 238 240 283 335 301 288 277 250 257 254 256 261 265 269 268 260 257 256 250 248 248 247 247 242 239 237 239 237 238 239 241 242 240 237 236 236 236 238 237 238 239 240 241 244 247 249 249
225 231 249 258 284 275 301 287 279 245 234 246 250 256 261 261 262 260 254 249 250 248 247 247 247 248 245 241 238 237 239 240 240 240 239 236 237 238 238 239 240 240 241 242 246 247 248 250 249
232 182 231 258 262 257 129 288 289 233 242 225 243 246 251 257 260 260 259 254 248 248 249 251 250 247 246 243 239 238 237 237 239 239 240 239 237 238 239 239 241 242 242 243 246 247 249 248 246
230 149 179 191 233 275 252 279 262 255 271 247 244 257 263 268 269 268 268 267 264 256 252 253 251 247 243 243 242 240 239 241 243 243 242 241 238 239 240 240 241 243 245 245 246 246 246 247 247
181 89 124 155 185 250 200 200 259 223 249 266 226 254 268 275 275 274 275 274 271 267 259 254 250 246 242 241 242 241 240 240 240 240 241 242 240 239 239 240 242 244 246 246 247 249 248 249 249
180 130 263 207 208 239 178 185 256 290 278 284 262 267 278 278 278 282 276 275 272 271 265 260 255 248 243 242 241 240 241 239 241 243 241 242 242 239 238 238 241 243 245 246 247 247 248 246 247
201 195 178 193 205 208 218 220 254 83 274 265 264 270 279 279 280 282 282 277 276 279 272 263 261 255 246 243 240 241 239 238 239 241 243 243 243 244 243 239 239 241 243 245 246 247 248 247 247
172 208 213 22 204 51 213 272 287 270 272 269 268 273 277 280 285 285 286 285 284 284 275 268 262 258 252 247 243 240 239 237 237 240 241 243 243 244 244 240 237 239 241 242 243 245 248 248 250
154 160 163 199 225 225 235 253 251 291 287 272 276 278 281 285 289 295 296 295 298 293 290 273 265 262 259 250 245 240 237 239 238 238 239 240 240 240 240 239 236 237 237 239 239 243 245 247 250
190 236 218 189 180 214 247 251 218 255 265 278 288 281 286 298 300 302 301 303 301 297 292 280 270 259 253 249 246 242 238 237 236 234 238 239 239 240 239 239 236 234 237 237 238 240 243 244 248
205 216 218 221 237 249 254 263 267 274 281 284 288 293 290 287 288 297 304 307 306 303 296 283 272 258 250 249 246 242 238 235 232 231 234 236 236 238 240 240 237 234 234 235 235 237 239 241 248